Location: Binningen
(47.7924°N, 8.7261°E)
Time: 01:17:41
(UTC+00:00)

Terra - Pass Details

Date: 26 September 2021
Orbit: 701 x 703 km, 98.2° (Epoch: 24 October)

Event Time Altitude Azimuth Distance (km) Brightness Sun altitude
Exits shadow 20:34:21 20° 11° (NNE) 1,629 3.9 -32.1°
Drops below altitude 10° 20:35:56 10° 1° (N) 2,182 4.8 -32.3°
Sets 20:38:19 0° 353° (N) 3,104 5.8 -32.6°
